Voltar ao catálogo

STARLINK-11373

AtivoComunicaçõesVLEO
NORAD 61582·PAYLOAD·🇺🇸 United States

Lançado Oct 18, 2024 de Cape Canaveral Space Force Station

Loading…

Próximas Passagens (próximas 24 horas)

TLE

AtualizadoSource: CelesTrak SupGP

Época: Sep 15, 2026, 02:39 UTC

1 61582C 24187J   26258.11090278 -.00015725  00000+0 -12941-3 0  2584
2 61582  53.1563  82.7791 0001060  84.1784  33.9929 15.69738701    13

Acompanhe STARLINK-11373 em tempo real com AllMySat

Download on the App Store